DLH579X FAOR-EDDM

Flight info

Callsign DLH579X
Flight time N/A
Altitude 36000
Route DCT VASUR UZ21 ITROL UQ25 RUDAS UM731 APKUS/N0494F380 UM731 USPOK/N0488F400 UM731 DIR UB730 DJA UA605 BARKA UG362 EBA/N0482F410 UP161 TUC/N0480F400 UA725 OSMAR DCT PIRIX DCT TIPNI DCT SUMIR/N0459F380 DCT NAXAV/N0416F340 DCT SOTOV T101 BETOS BETOS1A
Aircraft A359/H-SDE2E3GHIJ1J3J4J5M1P2RWXYZ/LB1D1

Departure

Time N/A
Airport O.R. Tambo International Airport (FAOR)

Arrival

Time 2026-05-04 17:00
Airport Munich Airport (EDDM)
Time Latitude Longitude Altitude Speed Heading
2026-05-04 13:21 21.77714 11.07081 38819 ft 452 kts 322°
2026-05-04 13:21 21.80389 11.05312 39012 ft 451 kts 322°
2026-05-04 13:22 21.83057 11.03545 39157 ft 451 kts 322°
2026-05-04 13:22 21.85730 11.01774 39285 ft 451 kts 322°
2026-05-04 13:22 21.88402 11.00002 39420 ft 451 kts 322°
2026-05-04 13:22 21.91071 10.98232 39550 ft 451 kts 322°
2026-05-04 13:23 21.93741 10.96461 39682 ft 451 kts 322°
2026-05-04 13:23 21.96408 10.94690 39804 ft 451 kts 322°
2026-05-04 13:23 21.99079 10.92917 39862 ft 451 kts 322°
2026-05-04 13:24 22.04418 10.89369 39859 ft 451 kts 322°
2026-05-04 13:24 22.09059 10.86284 39854 ft 450 kts 322°
2026-05-04 13:25 22.17052 10.80963 39861 ft 450 kts 322°
2026-05-04 13:25 22.22374 10.77415 39862 ft 450 kts 322°
2026-05-04 13:26 22.27698 10.73864 39867 ft 450 kts 322°
2026-05-04 13:26 22.33019 10.70311 39870 ft 449 kts 322°
2026-05-04 13:27 22.38334 10.66759 39873 ft 450 kts 322°
2026-05-04 13:27 22.43652 10.63202 39897 ft 450 kts 322°
2026-05-04 13:28 22.48968 10.59643 39869 ft 449 kts 322°
2026-05-04 13:28 22.54272 10.56089 39874 ft 449 kts 322°
2026-05-04 13:29 22.59579 10.52529 39876 ft 449 kts 322°
2026-05-04 13:29 22.64851 10.49000 39878 ft 449 kts 322°
2026-05-04 13:30 22.70264 10.45593 39878 ft 450 kts 324°
2026-05-04 13:30 22.75716 10.42245 39878 ft 450 kts 324°
2026-05-04 13:31 22.81148 10.38881 39881 ft 449 kts 324°
2026-05-04 13:31 22.86560 10.35501 39881 ft 449 kts 324°
2026-05-04 13:32 22.91966 10.32113 39880 ft 449 kts 324°
2026-05-04 13:32 22.97371 10.28722 39880 ft 449 kts 324°
2026-05-04 13:33 23.02776 10.25330 39886 ft 449 kts 324°
2026-05-04 13:33 23.08181 10.21936 39886 ft 449 kts 324°
2026-05-04 13:34 23.13578 10.18542 39884 ft 448 kts 324°
2026-05-04 13:34 23.18970 10.15150 39884 ft 447 kts 324°
2026-05-04 13:35 23.27048 10.10060 39886 ft 447 kts 324°
2026-05-04 13:36 23.32396 10.06687 39886 ft 447 kts 324°
2026-05-04 13:36 23.37777 10.03290 39887 ft 447 kts 324°
2026-05-04 13:37 23.43157 9.99889 39917 ft 447 kts 324°
2026-05-04 13:37 23.48534 9.96489 39901 ft 447 kts 324°
2026-05-04 13:38 23.53905 9.93089 39897 ft 446 kts 324°
2026-05-04 13:38 23.58366 9.90262 39902 ft 446 kts 324°
2026-05-04 13:39 23.63733 9.86857 39900 ft 446 kts 324°
2026-05-04 13:39 23.69102 9.83448 39902 ft 446 kts 324°
2026-05-04 13:40 23.74469 9.80037 39904 ft 447 kts 324°
2026-05-04 13:40 23.79835 9.76625 39901 ft 446 kts 324°
2026-05-04 13:41 23.85196 9.73211 39906 ft 446 kts 324°
2026-05-04 13:41 23.90553 9.69797 39909 ft 446 kts 324°
2026-05-04 13:42 23.98589 9.64669 39915 ft 446 kts 324°
2026-05-04 13:42 24.03946 9.61247 39961 ft 446 kts 324°
2026-05-04 13:43 24.09301 9.57822 40024 ft 446 kts 324°
2026-05-04 13:43 24.14653 9.54397 40051 ft 445 kts 324°
2026-05-04 13:44 24.20001 9.50970 40092 ft 445 kts 324°
2026-05-04 13:44 24.25348 9.47547 40099 ft 446 kts 324°
2026-05-04 13:45 24.31136 9.44927 40103 ft 457 kts 340°
2026-05-04 13:45 24.37360 9.43362 40100 ft 460 kts 342°
2026-05-04 13:46 24.43654 9.41990 40069 ft 461 kts 342°
2026-05-04 13:46 24.49949 9.40634 40029 ft 461 kts 342°
2026-05-04 13:47 24.56196 9.39263 39991 ft 461 kts 342°
2026-05-04 13:47 24.62482 9.37868 39935 ft 461 kts 342°
2026-05-04 13:48 24.68764 9.36470 39934 ft 461 kts 342°
2026-05-04 13:48 24.75046 9.35071 39951 ft 460 kts 342°
2026-05-04 13:49 24.81319 9.33673 39947 ft 460 kts 342°
2026-05-04 13:49 24.87590 9.32274 39949 ft 460 kts 342°
2026-05-04 13:50 24.93854 9.30874 39950 ft 459 kts 342°
2026-05-04 13:50 25.00120 9.29474 39944 ft 459 kts 342°
2026-05-04 13:51 25.06386 9.28072 39957 ft 459 kts 342°
2026-05-04 13:51 25.12637 9.26673 39937 ft 458 kts 342°
2026-05-04 13:52 25.22000 9.24573 39935 ft 458 kts 342°
2026-05-04 13:53 25.28201 9.23180 39927 ft 458 kts 342°
2026-05-04 13:53 25.34440 9.21777 39924 ft 458 kts 342°
2026-05-04 13:54 25.43789 9.19672 39897 ft 456 kts 342°
2026-05-04 13:55 25.53120 9.17568 39879 ft 456 kts 342°
2026-05-04 13:55 25.62453 9.15461 39858 ft 456 kts 342°
2026-05-04 13:56 25.68670 9.14055 39868 ft 456 kts 342°
2026-05-04 13:57 25.77973 9.11948 39851 ft 454 kts 342°
2026-05-04 13:58 25.90361 9.09138 39845 ft 454 kts 342°
2026-05-04 13:58 25.99648 9.07027 39855 ft 454 kts 342°
2026-05-04 13:59 26.05833 9.05627 39842 ft 453 kts 342°
2026-05-04 14:00 26.15107 9.03536 39840 ft 453 kts 342°
2026-05-04 14:00 26.24372 9.01442 39844 ft 453 kts 342°
2026-05-04 14:01 26.30503 9.00053 39846 ft 453 kts 342°
2026-05-04 14:02 26.39752 8.97954 39842 ft 452 kts 342°
2026-05-04 14:02 26.45917 8.96554 39845 ft 452 kts 342°
2026-05-04 14:03 26.52080 8.95153 39848 ft 452 kts 342°
2026-05-04 14:03 26.58238 8.93751 39839 ft 452 kts 342°
2026-05-04 14:04 26.67471 8.91646 39842 ft 451 kts 342°
2026-05-04 14:04 26.73622 8.90241 39896 ft 451 kts 342°
2026-05-04 14:05 26.82844 8.88133 39894 ft 451 kts 342°
2026-05-04 14:06 26.88993 8.86726 39888 ft 451 kts 342°
2026-05-04 14:06 26.95139 8.85318 39874 ft 451 kts 342°
2026-05-04 14:07 27.01288 8.83907 39863 ft 451 kts 342°
2026-05-04 14:07 27.07441 8.82506 39862 ft 451 kts 342°
2026-05-04 14:08 27.13594 8.81108 39871 ft 451 kts 342°
2026-05-04 14:08 27.19744 8.79707 39870 ft 451 kts 342°
2026-05-04 14:09 27.28978 8.77599 39874 ft 452 kts 342°
2026-05-04 14:10 27.38212 8.75487 39880 ft 451 kts 342°
2026-05-04 14:10 27.44325 8.74087 39882 ft 451 kts 342°
2026-05-04 14:11 27.50480 8.72676 39886 ft 451 kts 342°
2026-05-04 14:11 27.59708 8.70558 39895 ft 451 kts 341°
2026-05-04 14:12 27.65851 8.69145 39890 ft 451 kts 341°
2026-05-04 14:13 27.75067 8.67023 39891 ft 451 kts 341°
2026-05-04 14:13 27.81207 8.65606 39904 ft 451 kts 341°
2026-05-04 14:14 27.87358 8.64186 39893 ft 451 kts 341°
2026-05-04 14:14 27.96587 8.62052 39902 ft 451 kts 341°
2026-05-04 14:15 28.08890 8.59202 39901 ft 451 kts 341°
2026-05-04 14:16 28.18136 8.57075 39905 ft 453 kts 341°
2026-05-04 14:17 28.27402 8.54954 39905 ft 453 kts 341°
2026-05-04 14:18 28.36666 8.52824 39913 ft 453 kts 341°
2026-05-04 14:19 28.48995 8.49983 39910 ft 454 kts 341°
2026-05-04 14:19 28.55189 8.48554 39916 ft 454 kts 341°
2026-05-04 14:20 28.61383 8.47123 39914 ft 454 kts 341°
2026-05-04 14:20 28.67578 8.45689 39914 ft 454 kts 341°
2026-05-04 14:21 28.76881 8.43533 39915 ft 455 kts 341°
2026-05-04 14:21 28.83089 8.42092 39913 ft 455 kts 341°
2026-05-04 14:22 28.89301 8.40650 39916 ft 455 kts 341°
2026-05-04 14:22 28.95510 8.39205 39916 ft 455 kts 341°
2026-05-04 14:23 29.04829 8.37033 39916 ft 457 kts 341°
2026-05-04 14:24 29.11060 8.35578 39917 ft 457 kts 341°
2026-05-04 14:24 29.17293 8.34123 39913 ft 457 kts 341°
2026-05-04 14:25 29.23523 8.32666 39923 ft 457 kts 341°
2026-05-04 14:25 29.32870 8.30475 39920 ft 458 kts 341°
2026-05-04 14:26 29.38061 8.29256 39936 ft 458 kts 341°
2026-05-04 14:26 29.45327 8.27549 39927 ft 458 kts 341°
2026-05-04 14:27 29.51574 8.26080 39929 ft 459 kts 341°
2026-05-04 14:27 29.57828 8.24607 39945 ft 459 kts 341°
2026-05-04 14:28 29.63069 8.23371 39942 ft 459 kts 341°
2026-05-04 14:28 29.69334 8.21891 39943 ft 460 kts 341°
2026-05-04 14:29 29.81829 8.18935 39950 ft 460 kts 341°
2026-05-04 14:30 29.88140 8.17440 39961 ft 460 kts 341°
2026-05-04 14:31 29.97506 8.15218 39951 ft 461 kts 341°
2026-05-04 14:31 30.03981 8.14649 39952 ft 476 kts 356°
2026-05-04 14:32 30.10542 8.16393 39958 ft 496 kts 16°
2026-05-04 14:32 30.16718 8.20150 39965 ft 505 kts 23°
2026-05-04 14:33 30.22772 8.24308 39959 ft 507 kts 24°
2026-05-04 14:33 30.28819 8.28496 39960 ft 507 kts 24°
2026-05-04 14:34 30.34883 8.32647 39963 ft 506 kts 24°
2026-05-04 14:34 30.40955 8.36781 39967 ft 506 kts 24°
2026-05-04 14:35 30.47017 8.40908 39974 ft 505 kts 24°
2026-05-04 14:35 30.53085 8.45013 39970 ft 505 kts 23°
2026-05-04 14:36 30.59119 8.49079 39972 ft 505 kts 23°
2026-05-04 14:36 30.65188 8.53179 39971 ft 505 kts 24°
2026-05-04 14:37 30.71256 8.57287 39977 ft 505 kts 24°
2026-05-04 14:37 30.77330 8.61407 39974 ft 506 kts 24°
2026-05-04 14:38 30.83403 8.65533 39978 ft 506 kts 24°
2026-05-04 14:38 30.89475 8.69666 39980 ft 506 kts 24°
2026-05-04 14:39 30.95545 8.73802 39997 ft 505 kts 24°
2026-05-04 14:39 31.01608 8.77941 39982 ft 505 kts 24°
2026-05-04 14:40 31.10699 8.84156 39982 ft 505 kts 24°
2026-05-04 14:40 31.16755 8.88304 39986 ft 505 kts 24°
2026-05-04 14:41 31.22771 8.92431 39998 ft 505 kts 24°
2026-05-04 14:42 31.34886 9.00760 39995 ft 505 kts 24°
2026-05-04 14:42 31.40939 9.04932 39990 ft 505 kts 24°
2026-05-04 14:43 31.46995 9.09112 40002 ft 505 kts 24°
2026-05-04 14:43 31.53044 9.13293 39997 ft 505 kts 24°
2026-05-04 14:44 31.59089 9.17479 39998 ft 505 kts 24°
2026-05-04 14:44 31.65285 9.21210 40000 ft 494 kts 13°
2026-05-04 14:45 31.71872 9.22895 39999 ft 480 kts 360°
2026-05-04 14:45 31.78505 9.23545 40045 ft 478 kts 356°
2026-05-04 14:46 31.81823 9.23766 40191 ft 477 kts 356°
2026-05-04 14:46 31.85132 9.23981 40371 ft 476 kts 356°
2026-05-04 14:46 31.88443 9.24206 40518 ft 476 kts 356°
2026-05-04 14:46 31.91749 9.24443 40686 ft 476 kts 356°
2026-05-04 14:47 31.95056 9.24694 40829 ft 476 kts 356°
2026-05-04 14:47 31.98356 9.24952 40962 ft 476 kts 356°
2026-05-04 14:47 32.04994 9.25481 41006 ft 480 kts 356°
2026-05-04 14:48 32.11606 9.26011 41007 ft 479 kts 356°
2026-05-04 14:48 32.18261 9.26544 41007 ft 479 kts 356°
2026-05-04 14:49 32.24912 9.27076 41010 ft 479 kts 356°
2026-05-04 14:49 32.31565 9.27608 41008 ft 479 kts 357°
2026-05-04 14:50 32.38224 9.28141 41006 ft 479 kts 357°
2026-05-04 14:50 32.44881 9.28676 41011 ft 480 kts 357°
2026-05-04 14:51 32.51538 9.29211 41008 ft 479 kts 357°
2026-05-04 14:51 32.58197 9.29748 41012 ft 480 kts 357°
2026-05-04 14:52 32.64858 9.30284 41009 ft 480 kts 357°
2026-05-04 14:52 32.71521 9.30822 41010 ft 480 kts 357°
2026-05-04 14:53 32.78185 9.31362 41009 ft 480 kts 357°
2026-05-04 14:53 32.84852 9.31902 41012 ft 480 kts 357°
2026-05-04 14:54 32.91518 9.32443 41009 ft 480 kts 357°
2026-05-04 14:54 32.98184 9.32984 41014 ft 480 kts 357°
2026-05-04 14:55 33.04850 9.33527 41012 ft 480 kts 357°
2026-05-04 14:55 33.11516 9.34070 41012 ft 480 kts 357°
2026-05-04 14:56 33.18184 9.34614 41015 ft 480 kts 357°
2026-05-04 14:56 33.24853 9.35159 41015 ft 480 kts 357°
2026-05-04 14:57 33.31477 9.35701 41015 ft 480 kts 357°
2026-05-04 14:57 33.38145 9.36248 41018 ft 481 kts 357°
2026-05-04 14:58 33.44819 9.36796 41018 ft 481 kts 357°
2026-05-04 14:58 33.51493 9.37345 41018 ft 481 kts 357°
2026-05-04 14:59 33.58169 9.37895 41018 ft 481 kts 357°
2026-05-04 15:00 33.68187 9.38721 41019 ft 481 kts 357°
2026-05-04 15:00 33.74871 9.39274 41023 ft 482 kts 357°
2026-05-04 15:01 33.84900 9.40105 41009 ft 482 kts 357°
2026-05-04 15:01 33.91587 9.40660 41021 ft 482 kts 357°
2026-05-04 15:02 33.98275 9.41216 41022 ft 482 kts 357°
2026-05-04 15:02 34.04962 9.41773 41022 ft 482 kts 357°
2026-05-04 15:03 34.11647 9.42330 41047 ft 482 kts 357°
2026-05-04 15:03 34.18339 9.42889 41027 ft 482 kts 357°
2026-05-04 15:04 34.25031 9.43449 41025 ft 482 kts 357°
2026-05-04 15:04 34.31727 9.44010 41029 ft 482 kts 357°
2026-05-04 15:05 34.38374 9.44569 41040 ft 482 kts 357°
2026-05-04 15:05 34.45071 9.45132 41022 ft 482 kts 357°
2026-05-04 15:06 34.51763 9.45692 41033 ft 483 kts 357°
2026-05-04 15:07 34.61806 9.46540 41031 ft 481 kts 357°
2026-05-04 15:07 34.68470 9.47107 41026 ft 480 kts 357°
2026-05-04 15:08 34.75128 9.47671 41018 ft 479 kts 357°
2026-05-04 15:08 34.81785 9.48235 41015 ft 479 kts 357°
2026-05-04 15:09 34.88439 9.48800 41023 ft 479 kts 357°
2026-05-04 15:09 34.95094 9.49366 41012 ft 480 kts 357°
2026-05-04 15:10 35.05081 9.50217 41010 ft 480 kts 357°
2026-05-04 15:11 35.15025 9.51067 41013 ft 480 kts 357°
2026-05-04 15:11 35.21679 9.51638 41001 ft 479 kts 357°
2026-05-04 15:12 35.28334 9.52209 40997 ft 479 kts 357°
2026-05-04 15:12 35.34988 9.52780 40997 ft 479 kts 357°
2026-05-04 15:13 35.41646 9.53353 41001 ft 480 kts 357°
2026-05-04 15:13 35.48307 9.53927 40995 ft 480 kts 357°
2026-05-04 15:14 35.54967 9.54503 40997 ft 480 kts 357°
2026-05-04 15:14 35.61634 9.55079 40991 ft 480 kts 357°
2026-05-04 15:15 35.68298 9.55657 40996 ft 480 kts 357°
2026-05-04 15:15 35.74961 9.56236 40990 ft 480 kts 357°
2026-05-04 15:16 35.84964 9.57105 40987 ft 480 kts 357°
2026-05-04 15:17 35.94917 9.57972 40986 ft 480 kts 358°
2026-05-04 15:17 36.04940 9.58848 40992 ft 481 kts 357°
2026-05-04 15:18 36.11605 9.59434 40996 ft 480 kts 357°
2026-05-04 15:19 36.21596 9.60311 40996 ft 480 kts 357°
2026-05-04 15:19 36.30457 9.61091 40991 ft 479 kts 357°
2026-05-04 15:20 36.37115 9.61677 41008 ft 480 kts 357°
2026-05-04 15:20 36.43767 9.62265 40987 ft 479 kts 357°
2026-05-04 15:21 36.50414 9.62853 40992 ft 479 kts 357°
2026-05-04 15:22 36.60389 9.63738 41005 ft 479 kts 357°
2026-05-04 15:22 36.70359 9.64624 40993 ft 479 kts 357°
2026-05-04 15:23 36.77005 9.65217 40996 ft 479 kts 357°
2026-05-04 15:23 36.83652 9.65810 40996 ft 479 kts 357°
2026-05-04 15:24 36.96943 9.66998 41008 ft 479 kts 358°
2026-05-04 15:25 37.03593 9.67595 41015 ft 479 kts 358°
2026-05-04 15:26 37.13524 9.68488 41019 ft 480 kts 358°
2026-05-04 15:26 37.23563 9.69395 41019 ft 480 kts 358°
2026-05-04 15:27 37.33520 9.70294 41023 ft 480 kts 358°
2026-05-04 15:28 37.43510 9.71200 41020 ft 480 kts 358°
2026-05-04 15:29 37.53500 9.72107 41023 ft 480 kts 358°
2026-05-04 15:30 37.76807 9.74234 41029 ft 480 kts 358°
2026-05-04 15:31 37.86800 9.75151 41026 ft 480 kts 358°
2026-05-04 15:32 38.03404 9.76679 41032 ft 480 kts 358°
2026-05-04 15:34 38.20057 9.78219 41032 ft 480 kts 358°
2026-05-04 15:34 38.29844 9.77335 41029 ft 465 kts 342°
2026-05-04 15:35 38.39251 9.74401 41035 ft 463 kts 339°
2026-05-04 15:36 38.48617 9.71305 41030 ft 464 kts 340°
2026-05-04 15:36 38.54878 9.69273 41041 ft 465 kts 340°
2026-05-04 15:37 38.61149 9.67248 41041 ft 465 kts 340°
2026-05-04 15:37 38.67385 9.65233 41042 ft 465 kts 340°
2026-05-04 15:38 38.73839 9.64033 41058 ft 476 kts 354°
2026-05-04 15:38 38.80501 9.64971 41039 ft 486 kts
2026-05-04 15:39 38.87139 9.66671 40453 ft 486 kts
2026-05-04 15:39 38.93740 9.68498 40031 ft 485 kts
2026-05-04 15:40 38.97043 9.69398 40057 ft 485 kts
2026-05-04 15:40 39.03640 9.71162 40046 ft 484 kts
2026-05-04 15:41 39.10241 9.72902 40046 ft 484 kts
2026-05-04 15:41 39.16837 9.74640 40051 ft 484 kts
2026-05-04 15:42 39.23432 9.76383 40056 ft 484 kts
2026-05-04 15:42 39.30024 9.78131 40055 ft 483 kts
2026-05-04 15:43 39.36615 9.79881 40057 ft 483 kts
2026-05-04 15:43 39.43199 9.81634 40060 ft 482 kts
2026-05-04 15:44 39.49769 9.83386 40054 ft 482 kts
2026-05-04 15:44 39.56326 9.85138 40058 ft 481 kts
2026-05-04 15:45 39.62876 9.86891 40070 ft 480 kts
2026-05-04 15:45 39.69414 9.88645 40060 ft 479 kts
2026-05-04 15:46 39.75938 9.90397 40059 ft 479 kts
2026-05-04 15:46 39.82463 9.92154 40063 ft 479 kts
2026-05-04 15:47 39.88970 9.93911 40062 ft 475 kts
2026-05-04 15:47 39.95390 9.95648 40059 ft 474 kts
2026-05-04 15:48 40.01845 9.97394 40057 ft 474 kts
2026-05-04 15:48 40.11545 10.00024 40059 ft 475 kts
2026-05-04 15:49 40.18025 10.01787 40058 ft 476 kts
2026-05-04 15:49 40.24507 10.03555 40059 ft 476 kts
2026-05-04 15:50 40.30988 10.05326 40059 ft 476 kts
2026-05-04 15:50 40.37464 10.07098 40062 ft 476 kts
2026-05-04 15:51 40.43942 10.08875 40055 ft 476 kts
2026-05-04 15:51 40.50430 10.10656 40057 ft 478 kts
2026-05-04 15:52 40.56972 10.12454 40056 ft 481 kts
2026-05-04 15:52 40.63532 10.14265 40059 ft 482 kts
2026-05-04 15:53 40.70095 10.16081 40067 ft 482 kts
2026-05-04 15:53 40.76680 10.17905 40062 ft 484 kts
2026-05-04 15:54 40.83278 10.19736 40062 ft 485 kts
2026-05-04 15:54 40.89830 10.21561 40076 ft 483 kts
2026-05-04 15:55 40.96406 10.23395 40065 ft 483 kts
2026-05-04 15:55 41.02986 10.25231 40064 ft 483 kts
2026-05-04 15:56 41.09566 10.27071 40064 ft 483 kts
2026-05-04 15:56 41.16148 10.28916 40072 ft 484 kts
2026-05-04 15:57 41.22731 10.30766 40077 ft 484 kts
2026-05-04 15:57 41.29317 10.32621 40074 ft 484 kts
2026-05-04 15:58 41.35900 10.34478 40073 ft 484 kts
2026-05-04 15:58 41.42492 10.36341 40072 ft 485 kts
2026-05-04 15:59 41.49088 10.38210 40072 ft 485 kts
2026-05-04 15:59 41.55684 10.40082 40074 ft 484 kts
2026-05-04 16:00 41.62230 10.41945 40075 ft 484 kts
2026-05-04 16:00 41.68818 10.43823 40080 ft 484 kts
2026-05-04 16:01 41.75406 10.45705 40081 ft 484 kts
2026-05-04 16:01 41.81989 10.47590 40080 ft 484 kts
2026-05-04 16:02 41.88572 10.49479 40082 ft 484 kts
2026-05-04 16:03 41.98451 10.52319 40084 ft 484 kts
2026-05-04 16:03 42.05041 10.54220 40084 ft 485 kts
2026-05-04 16:04 42.11635 10.56126 40082 ft 485 kts
2026-05-04 16:04 42.21518 10.58990 40086 ft 483 kts
2026-05-04 16:05 42.28093 10.60901 40085 ft 483 kts
2026-05-04 16:06 42.37947 10.63771 40090 ft 483 kts
2026-05-04 16:07 42.51089 10.67614 40088 ft 483 kts
2026-05-04 16:08 42.64224 10.71471 40109 ft 483 kts
2026-05-04 16:09 42.80636 10.76316 40127 ft 482 kts
2026-05-04 16:10 42.92627 10.79872 40126 ft 482 kts
2026-05-04 16:11 43.05691 10.83762 40119 ft 480 kts
2026-05-04 16:12 43.25273 10.89621 40121 ft 481 kts
2026-05-04 16:13 43.38353 10.93559 40114 ft 482 kts
2026-05-04 16:14 43.51455 10.97522 40119 ft 482 kts
2026-05-04 16:16 43.67812 11.02491 40089 ft 483 kts
2026-05-04 16:17 43.84248 11.07514 40071 ft 484 kts
2026-05-04 16:18 43.97412 11.11556 40087 ft 484 kts
2026-05-04 16:19 44.13867 11.16634 40126 ft 485 kts
2026-05-04 16:20 44.30342 11.21571 40123 ft 481 kts
2026-05-04 16:22 44.46949 11.22990 40127 ft 478 kts 358°
2026-05-04 16:23 44.66878 11.24367 40112 ft 478 kts 358°
2026-05-04 16:25 44.86775 11.25786 40100 ft 478 kts 359°
2026-05-04 16:26 45.10035 11.27453 40088 ft 479 kts 359°
2026-05-04 16:28 45.26090 11.28613 40075 ft 479 kts 359°
2026-05-04 16:29 45.49386 11.30307 40069 ft 479 kts 359°
2026-05-04 16:31 45.65929 11.29864 40079 ft 477 kts 353°
2026-05-04 16:32 45.85854 11.28464 40108 ft 478 kts 354°
2026-05-04 16:33 45.99166 11.27576 40117 ft 479 kts 354°
2026-05-04 16:34 46.09152 11.26903 40110 ft 479 kts 354°
2026-05-04 16:35 46.29078 11.25554 40094 ft 479 kts 354°
2026-05-04 16:36 46.39038 11.24876 39755 ft 471 kts 354°
2026-05-04 16:37 46.45569 11.24432 38539 ft 472 kts 354°
2026-05-04 16:37 46.48855 11.24206 37840 ft 473 kts 354°
2026-05-04 16:37 46.55421 11.23750 36532 ft 472 kts 354°
2026-05-04 16:38 46.61992 11.23297 35154 ft 475 kts 354°
2026-05-04 16:39 46.71924 11.22614 33301 ft 473 kts 355°
2026-05-04 16:39 46.78460 11.22166 32224 ft 467 kts 355°
2026-05-04 16:40 46.84899 11.21722 31171 ft 460 kts 355°
2026-05-04 16:40 46.91246 11.21278 30133 ft 453 kts 355°
2026-05-04 16:41 46.97507 11.21280 29021 ft 446 kts 360°
2026-05-04 16:41 47.06695 11.22129 27252 ft 440 kts
2026-05-04 16:42 47.15740 11.23334 25704 ft 430 kts
2026-05-04 16:43 47.21671 11.24090 24685 ft 426 kts
2026-05-04 16:43 47.27539 11.24834 23661 ft 421 kts
2026-05-04 16:43 47.30448 11.25202 23109 ft 418 kts
2026-05-04 16:44 47.41808 11.26642 21166 ft 402 kts
2026-05-04 16:45 47.47378 11.27274 20204 ft 402 kts
2026-05-04 16:46 47.55659 11.28390 18666 ft 396 kts
2026-05-04 16:46 47.61117 11.29098 17581 ft 391 kts
2026-05-04 16:47 47.66470 11.29783 16597 ft 381 kts
2026-05-04 16:47 47.71704 11.30512 15680 ft 377 kts
2026-05-04 16:48 47.79515 11.31672 14150 ft 374 kts
2026-05-04 16:48 47.82064 11.32047 13596 ft 373 kts
2026-05-04 16:49 47.87207 11.32793 12346 ft 370 kts
2026-05-04 16:49 47.92307 11.33520 11151 ft 367 kts
2026-05-04 16:50 47.97297 11.34247 10071 ft 344 kts
2026-05-04 16:50 48.01758 11.34933 9732 ft 311 kts
2026-05-04 16:51 48.06014 11.35133 8744 ft 300 kts 354°
2026-05-04 16:51 48.08058 11.34923 8218 ft 290 kts 354°
2026-05-04 16:51 48.11958 11.34482 7179 ft 273 kts 354°
2026-05-04 16:52 48.15649 11.33986 6216 ft 259 kts 354°
2026-05-04 16:52 48.17420 11.33723 5724 ft 252 kts 354°
2026-05-04 16:53 48.20853 11.33161 4882 ft 246 kts 354°
2026-05-04 16:53 48.25846 11.32315 4124 ft 237 kts 358°
2026-05-04 16:54 48.27427 11.32804 3996 ft 233 kts 29°
2026-05-04 16:55 48.31269 11.40436 4009 ft 232 kts 75°
2026-05-04 16:55 48.31741 11.45174 3990 ft 220 kts 84°
2026-05-04 16:56 48.32060 11.49405 3979 ft 187 kts 83°
2026-05-04 16:56 48.32513 11.54996 4027 ft 177 kts 83°
2026-05-04 16:57 48.32656 11.56827 3904 ft 177 kts 83°
2026-05-04 16:57 48.32937 11.60496 3444 ft 176 kts 83°
2026-05-04 16:58 48.33343 11.65740 2767 ft 153 kts 82°
2026-05-04 16:58 48.33461 11.67281 2554 ft 143 kts 82°
2026-05-04 16:59 48.33652 11.69687 2261 ft 139 kts 80°
2026-05-04 17:00 48.34122 11.75791 1483 ft 140 kts 81°
2026-05-04 17:00 48.34336 11.78585 1479 ft 48 kts 83°
2026-05-04 17:01 48.34502 11.79295 1476 ft 23 kts 52°
2026-05-04 17:01 48.34601 11.79492 1483 ft 3 kts 52°
2026-05-04 17:02 48.34616 11.79522 1476 ft 0 kts 53°
2026-05-04 17:04 48.34616 11.79523 1476 ft 1 kts 53°
2026-05-04 17:05 48.34712 11.79554 1483 ft 13 kts 353°
2026-05-04 17:05 48.34900 11.79551 1484 ft 7 kts 353°
2026-05-04 17:06 48.34917 11.79548 1484 ft 0 kts 353°
2026-05-04 17:07 48.34982 11.79536 1476 ft 10 kts 353°
2026-05-04 17:07 48.35031 11.79528 1477 ft 11 kts 353°
2026-05-04 17:07 48.35152 11.79507 1480 ft 15 kts 353°
2026-05-04 17:07 48.35261 11.79488 1479 ft 17 kts 353°
2026-05-04 17:08 48.35366 11.79471 1479 ft 15 kts 355°
2026-05-04 17:08 48.35520 11.79593 1480 ft 3 kts 49°
2026-05-04 17:08 48.35524 11.79632 1476 ft 5 kts 82°
2026-05-04 17:09 48.35528 11.79678 1479 ft 5 kts 82°
2026-05-04 17:09 48.35530 11.79713 1480 ft 2 kts 83°
2026-05-04 17:09 48.35531 11.79721 1478 ft 0 kts 83°
2026-05-04 17:10 48.35531 11.79723 1478 ft 0 kts 83°